TimeCDT,TemperatureF,Dew PointF,Humidity,Sea Level PressureIn,VisibilityMPH,Wind Direction,Wind SpeedMPH,Gust SpeedMPH,PrecipitationIn,Events,Conditions,WindDirDegrees,DateUTC
12:53 AM,32.0,26.1,79,30.30,10.0,Calm,Calm,-,N/A,,Clear,0,2012-10-28 05:53:00
1:53 AM,33.1,26.1,75,30.29,10.0,ENE,3.5,-,N/A,,Clear,60,2012-10-28 06:53:00
2:53 AM,32.0,26.1,79,30.28,10.0,Calm,Calm,-,N/A,,Clear,0,2012-10-28 07:53:00
3:53 AM,32.0,25.0,75,30.28,10.0,Calm,Calm,-,N/A,,Unknown,0,2012-10-28 08:53:00
4:53 AM,30.0,26.1,85,30.30,10.0,North,-9999.0,-,N/A,,Clear,0,2012-10-28 09:53:00
5:53 AM,30.0,26.1,85,30.31,10.0,Calm,Calm,-,N/A,,Clear,0,2012-10-28 10:53:00
6:53 AM,30.9,27.0,85,30.32,10.0,Calm,Calm,-,N/A,,Clear,0,2012-10-28 11:53:00
7:53 AM,30.9,27.0,85,30.32,10.0,Calm,Calm,-,N/A,,Clear,0,2012-10-28 12:53:00
8:53 AM,30.0,28.0,92,30.35,8.0,Calm,Calm,-,N/A,,Clear,0,2012-10-28 13:53:00
9:53 AM,39.9,30.0,68,30.34,10.0,Calm,Calm,-,N/A,,Clear,0,2012-10-28 14:53:00
10:53 AM,46.9,30.9,54,30.35,10.0,Variable,3.5,-,N/A,,Clear,0,2012-10-28 15:53:00
11:53 AM,51.1,28.0,41,30.35,10.0,Calm,Calm,-,N/A,,Clear,0,2012-10-28 16:53:00
12:53 PM,55.0,27.0,34,30.32,10.0,Variable,3.5,-,N/A,,Clear,0,2012-10-28 17:53:00
1:53 PM,57.9,25.0,28,30.28,10.0,ENE,5.8,-,N/A,,Clear,70,2012-10-28 18:53:00
2:53 PM,59.0,27.0,29,30.24,10.0,Variable,3.5,-,N/A,,Clear,0,2012-10-28 19:53:00
3:53 PM,60.1,26.1,27,30.22,10.0,East,6.9,-,N/A,,Clear,90,2012-10-28 20:53:00
4:53 PM,60.1,26.1,27,30.22,10.0,East,4.6,-,N/A,,Clear,100,2012-10-28 21:53:00
5:53 PM,59.0,26.1,28,30.22,10.0,East,4.6,-,N/A,,Clear,100,2012-10-28 22:53:00
6:53 PM,52.0,28.0,40,30.23,10.0,ESE,4.6,-,N/A,,Clear,120,2012-10-28 23:53:00
7:53 PM,51.1,28.0,41,30.25,10.0,ESE,6.9,-,N/A,,Clear,120,2012-10-29 00:53:00
8:53 PM,50.0,28.0,43,30.24,10.0,ESE,5.8,-,N/A,,Clear,120,2012-10-29 01:53:00
9:53 PM,48.0,27.0,44,30.25,10.0,ESE,6.9,-,N/A,,Clear,120,2012-10-29 02:53:00
10:53 PM,46.9,27.0,46,30.26,10.0,SE,6.9,-,N/A,,Clear,130,2012-10-29 03:53:00
11:53 PM,44.1,28.0,53,30.27,10.0,SSE,5.8,-,N/A,,Clear,150,2012-10-29 04:53:00